Location: ??????
(38.0677°N, 22.9870°E)
Time: 11:40:25
(UTC+00:00)

SL-8 Rocket - Pass Details

Date: 23 May 2024
Orbit: 957 x 990 km, 82.9° (Epoch: 18 June)

Event Time Altitude Azimuth Distance (km) Brightness Sun altitude
Rises 02:40:01 0° 191° (S) 3,639 6.6 -6.2°
Reaches altitude 10° 02:42:31 10° 193° (SSW) 2,692 5.9 -5.8°
Maximum altitude 02:48:40 72° 278° (W) 1,009 4.0 -4.7°
Drops below altitude 10° 02:54:49 10° 2° (N) 2,695 6.8 -3.7°
Sets 02:57:20 0° 5° (N) 3,644 7.5 -3.3°
